Flag for Canada Weather past 2 weeks in Chatham-Kent, Ontario, Canada

Now
73 °F

Mild.


Feels Like: 76 °F
Forecast: 65 / 77 °F
Wind: 3 mph from Southwest

Location: Erieau

Current Time: Aug 1, 2015 at 12:17:11 PM

Latest Report: Aug 1, 2015 at 11:00 AM


Visibility: N/A

Pressure: 29.91 "Hg

Humidity: 64%

Dew point: 60 °F

Location of Chatham-KentLocation

Historic Weather in Chatham-Kent — Graph

°F

Chatham-Kent temperature yesterday

Maximum temperature yesterday: 78 °F (at 9:00 PM)
Minimum temperature yesterday: 68 °F (at 5:00 AM)
Average temperature yesterday: 73 °F

Past Weeks' High & Low Weather Summary

 TemperatureHumidityPressure
High84 °F (Jul 27, 7:00 PM)98% (Jul 19, 10:00 PM)30.03 "Hg (Jul 19, 10:00 PM)
Low63 °F (Jul 22, 6:00 AM)36% (Jul 30, 2:00 PM)29.67 "Hg (Jul 21, 5:00 AM)
Average74 °F75%29.90 "Hg
* Reported Jul 17 11:00 AM — Aug 1 11:00 AM, Chatham-Kent, Weather by CustomWeather, © 2015

Note: Actual official high and low records may vary slightly from our data, if they occured in-between our weather recording intervals... More about our weather records

Advertising

Chatham-Kent weather history for previous 24 hours

 ConditionsComfort  
Time TempWeatherWind HumidityBarometerVisibility
11:00 AM
Sat, Aug 1
73 °FMild.3 mph64%29.91 "HgN/A
10:00 AM70 °FMild.5 mph72%29.91 "HgN/A
9:00 AM67 °FMild.3 mph77%29.90 "HgN/A
8:00 AM68 °FMild.2 mph66%29.89 "HgN/A
7:00 AM65 °FMild.5 mph80%29.88 "HgN/A
6:00 AM65 °FMild.3 mph78%29.87 "HgN/A
5:00 AM65 °FMild.3 mph76%29.86 "HgN/A
4:00 AM66 °FMild.2 mph73%29.86 "HgN/A
3:00 AM68 °FMild.2 mph69%29.85 "HgN/A
2:00 AM70 °FMild.3 mph62%29.85 "HgN/A
1:00 AM71 °FMild.5 mph59%29.85 "HgN/A
12:00 AM70 °FMild.5 mph64%29.83 "HgN/A
11:00 PM
Fri, Jul 31
72 °FMild.5 mph60%29.83 "HgN/A
10:00 PM73 °FMild.5 mph55%29.82 "HgN/A
9:00 PM78 °FWarm.6 mph44%29.80 "HgN/A
8:00 PM77 °FMild.2 mph74%29.79 "HgN/A
7:00 PM75 °FMild.3 mph70%29.80 "HgN/A
6:00 PM77 °FWarm.No wind64%29.81 "HgN/A
5:00 PM77 °FMild.6 mph70%29.81 "HgN/A
4:00 PM76 °FMild.15 mph65%29.83 "HgN/A
3:00 PM77 °FMild.10 mph67%29.85 "HgN/A
2:00 PM76 °FMild.12 mph73%29.87 "HgN/A
1:00 PM76 °FMild.9 mph76%29.88 "HgN/A
12:00 PM75 °FMild.8 mph74%29.90 "HgN/A
Weather by CustomWeather, © 2015

See weather overviewHow to use our weather pages